FW8253 Weather Reports


Display with metric or nautical units.
time (UTC)temp
F
wind
direction
speed
MPH
gust
MPH
rain 1hr
in
rain 24hr
in
rain mn
in
humidity
%
barometer
mb
20260905123107 76 194 0.0 0.0 0.00 0.00 0.00 99 1015.8
20260905122607 76 141 0.0 0.0 0.00 0.00 0.00 99 1015.8
20260905122107 76 205 0.0 0.0 0.00 0.00 0.00 99 1015.9
20260905121601 76 151 0.0 0.0 0.00 0.00 0.00 99 1015.7
20260905121057 75 190 0.0 0.0 0.00 0.00 0.00 99 1015.7
20260905120555 75 233 0.0 0.0 0.00 0.00 0.00 99 1015.7
20260905120051 75 208 0.0 0.0 0.00 0.00 0.00 99 1015.6
20260905115550 75 218 0.0 0.0 0.00 0.00 0.00 99 1015.6
20260905115045 75 218 0.0 0.0 0.00 0.00 0.00 99 1015.4
20260905114544 75 218 0.0 0.0 0.00 0.00 0.00 99 1015.4
20260905114043 75 218 0.0 0.0 0.00 0.00 0.00 99 1015.6
20260905113538 75 218 0.0 0.0 0.00 0.00 0.00 99 1015.5
20260905113034 75 218 0.0 0.0 0.00 0.00 0.00 99 1015.6
20260905112529 74 218 0.0 0.0 0.00 0.00 0.00 99 1015.4
20260905112024 74 218 0.0 0.0 0.00 0.00 0.00 99 1015.5
20260905111519 74 218 0.0 0.0 0.00 0.00 0.00 99 1015.1
20260905111018 74 218 0.0 0.0 0.00 0.00 0.00 99 1015.6
20260905110517 74 218 0.0 0.0 0.00 0.00 0.00 99 1015.2
20260905110013 74 218 0.0 0.0 0.00 0.00 0.00 99 1015.2
20260905105507 74 219 0.0 0.0 0.00 0.00 0.00 99 1015.1
20260905105001 74 218 0.0 0.0 0.00 0.00 0.00 99 1015.1
20260905104457 74 218 0.0 0.0 0.00 0.00 0.00 99 1015.1
20260905103957 74 218 0.0 0.0 0.00 0.00 0.00 99 1015.0
20260905103452 74 219 0.0 0.0 0.00 0.00 0.00 99 1015.2
20260905102948 74 218 0.0 0.0 0.00 0.00 0.00 99 1014.9
20260905102444 74 218 0.0 0.0 0.00 0.00 0.00 99 1015.1
20260905101939 74 218 0.0 0.0 0.00 0.00 0.00 99 1015.0
20260905101437 74 218 0.0 0.0 0.00 0.00 0.00 99 1015.0
20260905100932 74 218 0.0 0.0 0.00 0.00 0.00 99 1014.9
20260905100428 73 218 0.0 0.0 0.00 0.00 0.00 99 1014.9
20260905095927 74 219 0.0 0.0 0.00 0.00 0.00 99 1014.8
20260905095422 74 219 0.0 0.0 0.00 0.00 0.00 99 1014.9
20260905094921 74 218 0.0 0.0 0.00 0.00 0.00 99 1014.9
20260905094418 74 218 0.0 0.0 0.00 0.00 0.00 99 1014.9
20260905093916 74 218 0.0 0.0 0.00 0.00 0.00 99 1014.6
20260905093412 74 218 0.0 0.0 0.00 0.00 0.00 99 1014.9
20260905092907 74 218 0.0 0.0 0.00 0.00 0.00 99 1014.8
20260905092402 74 219 0.0 0.0 0.00 0.00 0.00 99 1014.6
20260905091857 74 227 0.0 0.0 0.00 0.00 0.00 99 1014.6
20260905091357 74 227 0.0 0.0 0.00 0.00 0.00 99 1014.7
20260905090855 74 227 0.0 0.0 0.00 0.00 0.00 99 1014.6
20260905090352 74 227 0.0 0.0 0.00 0.00 0.00 99 1014.7
20260905085850 74 227 0.0 0.0 0.00 0.00 0.00 99 1014.7
20260905085345 74 227 0.0 0.0 0.00 0.00 0.00 99 1014.7
20260905084842 74 227 0.0 0.0 0.00 0.00 0.00 99 1014.6
20260905084340 74 226 0.0 0.0 0.00 0.00 0.00 99 1014.9
20260905083835 74 227 0.0 0.0 0.00 0.00 0.00 99 1014.6
20260905083331 74 226 0.0 0.0 0.00 0.00 0.00 99 1014.6
20260905082826 74 226 0.0 0.0 0.00 0.00 0.00 99 1014.6
20260905082322 74 226 0.0 0.0 0.00 0.00 0.00 99 1014.8
20260905081817 74 227 0.0 0.0 0.00 0.00 0.00 99 1014.8
20260905081312 74 227 0.0 0.0 0.00 0.00 0.00 99 1015.0
20260905080811 74 227 0.0 0.0 0.00 0.00 0.00 99 1014.6
20260905080306 74 227 0.0 0.0 0.00 0.00 0.00 99 1014.7
20260905075805 75 227 0.0 0.0 0.00 0.00 0.00 99 1014.8
20260905075306 75 227 0.0 0.0 0.00 0.00 0.00 99 1014.8
20260905074803 75 175 0.0 0.0 0.00 0.00 0.00 99 1015.0
20260905074300 75 175 0.0 0.0 0.00 0.00 0.00 99 1014.9
20260905073755 75 175 0.0 0.0 0.00 0.00 0.00 99 1014.9
20260905073250 75 175 0.0 0.0 0.00 0.00 0.00 99 1014.7
20260905072750 74 175 0.0 0.0 0.00 0.00 0.00 99 1014.7
20260905072245 74 175 0.0 0.0 0.00 0.00 0.00 99 1014.8
20260905071742 74 175 0.0 0.0 0.00 0.00 0.00 99 1014.6
20260905071237 74 175 0.0 0.0 0.00 0.00 0.00 99 1014.7
20260905070732 74 174 0.0 0.0 0.00 0.00 0.00 99 1014.9
20260905070229 74 174 0.0 0.0 0.00 0.00 0.00 99 1014.9
20260905065727 74 174 0.0 0.0 0.00 0.00 0.00 99 1014.9
20260905065221 74 175 0.0 0.0 0.00 0.00 0.00 99 1014.9
20260905064716 74 175 0.0 0.0 0.00 0.00 0.00 99 1014.9
20260905064212 74 175 0.0 0.0 0.00 0.00 0.00 99 1014.8
20260905063710 75 175 0.0 0.0 0.00 0.00 0.00 99 1014.9
20260905063207 75 175 0.0 0.0 0.00 0.00 0.00 99 1014.9
20260905062702 75 175 0.0 0.0 0.00 0.00 0.00 99 1015.0
20260905062202 75 175 0.0 0.0 0.00 0.00 0.00 99 1015.0
20260905061701 75 175 0.0 0.0 0.00 0.00 0.00 99 1015.1
20260905061156 75 175 0.0 0.0 0.00 0.00 0.00 99 1015.2
20260905060651 75 175 0.0 0.0 0.00 0.00 0.00 99 1015.0
20260905060148 75 176 0.0 0.0 0.00 0.00 0.00 99 1015.2
20260905055646 75 176 0.0 0.0 0.00 0.00 0.00 99 1015.1
20260905055142 75 176 0.0 0.0 0.00 0.00 0.00 99 1015.6
20260905054637 75 176 0.0 0.0 0.00 0.00 0.00 99 1015.7
20260905054133 75 176 0.0 0.0 0.00 0.00 0.00 99 1015.7
20260905053632 76 176 0.0 0.0 0.00 0.00 0.00 99 1015.8
20260905053128 76 176 0.0 0.0 0.00 0.00 0.00 99 1015.7
20260905052627 76 176 0.0 0.0 0.00 0.00 0.00 99 1015.7
20260905052122 76 178 0.0 0.0 0.00 0.00 0.00 99 1015.9
20260905051617 76 176 0.0 0.0 0.00 0.00 0.00 99 1016.0
20260905051114 76 176 0.0 0.0 0.00 0.00 0.00 99 1015.8
20260905050610 76 176 0.0 0.0 0.00 0.00 0.00 99 1015.8
20260905050107 76 177 0.0 0.0 0.00 0.00 0.00 99 1015.9
20260905045606 77 177 0.0 0.0 0.00 0.00 0.00 99 1015.9
20260905045102 77 177 0.0 0.0 0.00 0.00 0.00 99 1016.0
20260905044601 77 176 0.0 0.0 0.00 0.00 0.00 99 1015.9
20260905044056 77 173 0.0 0.0 0.00 0.00 0.00 99 1016.2
20260905043555 77 178 0.0 0.0 0.00 0.00 0.00 98 1016.0
20260905043051 77 178 0.0 0.0 0.00 0.00 0.00 98 1016.1
20260905042549 77 178 0.0 0.0 0.00 0.00 0.00 98 1016.1
20260905042045 78 178 0.0 0.0 0.00 0.00 0.00 98 1016.2
20260905041540 78 178 0.0 0.0 0.00 0.00 0.00 97 1016.2
20260905041036 78 178 0.0 0.0 0.00 0.00 0.00 97 1016.2
20260905040535 78 179 0.0 0.0 0.00 0.00 0.00 97 1016.1
20260905040034 78 179 0.0 0.0 0.00 0.00 0.00 96 1016.2
20260905035529 78 179 0.0 0.0 0.00 0.00 0.00 96 1016.0
20260905035026 78 179 0.0 0.0 0.00 0.00 0.00 96 1016.3
20260905034521 78 179 0.0 0.0 0.00 0.00 0.00 96 1016.3
20260905034021 79 179 0.0 0.0 0.00 0.00 0.00 95 1016.2
20260905033515 79 175 0.0 0.0 0.00 0.00 0.00 95 1016.3
20260905033011 79 174 0.0 0.0 0.00 0.00 0.00 95 1016.4
20260905032506 79 176 0.0 0.0 0.00 0.00 0.00 95 1016.2
20260905032001 79 181 0.0 0.0 0.00 0.00 0.00 94 1016.2
20260905031456 79 188 0.0 0.0 0.00 0.00 0.00 94 1016.1
20260905030951 79 186 0.0 0.0 0.00 0.00 0.00 94 1016.3
20260905030447 79 195 0.0 0.0 0.00 0.00 0.00 94 1016.3
20260905025945 79 209 0.0 0.0 0.00 0.00 0.00 93 1016.1
20260905025441 79 186 0.0 0.0 0.00 0.00 0.00 93 1016.2
20260905024937 80 186 0.0 0.0 0.00 0.00 0.00 93 1016.3
20260905024438 80 186 0.0 0.0 0.00 0.00 0.00 93 1016.3
20260905023933 80 186 0.0 0.0 0.00 0.00 0.00 92 1016.4
20260905023428 80 186 0.0 0.0 0.00 0.00 0.00 91 1016.4
20260905022927 80 186 0.0 0.0 0.00 0.00 0.00 91 1016.2
20260905022423 80 184 0.0 0.0 0.00 0.00 0.00 91 1016.4
20260905021918 80 235 0.0 0.0 0.00 0.00 0.00 91 1016.5
20260905021418 81 234 0.0 0.0 0.00 0.00 0.00 90 1016.5
20260905020913 81 212 0.0 0.0 0.00 0.00 0.00 90 1016.3
20260905020413 81 211 0.0 0.0 0.00 0.00 0.00 89 1016.3
20260905015912 81 168 0.0 0.0 0.00 0.00 0.00 89 1016.3
20260905015410 82 169 0.0 0.0 0.00 0.00 0.00 88 1016.4
20260905014910 82 180 0.0 0.0 0.00 0.00 0.00 87 1016.5
20260905014406 82 174 0.0 0.0 0.00 0.00 0.00 88 1016.5
20260905013901 82 175 0.0 0.0 0.00 0.00 0.00 87 1016.6
20260905013357 82 175 0.0 0.0 0.00 0.00 0.00 86 1016.5
20260905012852 83 175 0.0 0.0 0.00 0.00 0.00 86 1016.5
20260905012347 83 175 0.0 0.0 0.00 0.00 0.00 86 1016.5
20260905011844 83 175 0.0 0.0 0.00 0.00 0.00 85 1016.3
20260905011339 83 175 0.0 0.0 0.00 0.00 0.00 84 1016.2
20260905010835 84 168 0.0 0.0 0.00 0.00 0.00 84 1016.0
20260905010330 84 168 0.0 0.0 0.00 0.00 0.00 83 1016.1
20260905005826 84 185 0.0 0.0 0.00 0.00 0.00 83 1015.9
20260905005321 84 183 0.0 0.0 0.00 0.00 0.00 82 1015.8
20260905004816 85 175 0.0 0.0 0.00 0.00 0.00 82 1015.8
20260905004311 85 186 0.0 0.0 0.00 0.00 0.00 81 1015.8
20260905003806 85 194 0.0 0.0 0.00 0.00 0.00 81 1015.5
20260905003302 85 204 0.0 0.0 0.00 0.00 0.00 81 1015.7
20260905002757 86 190 0.0 0.0 0.00 0.00 0.00 81 1015.6
20260905002257 86 226 0.0 0.0 0.00 0.00 0.00 80 1015.7
20260905001752 86 208 0.0 0.0 0.00 0.00 0.00 80 1015.7
20260905001252 86 205 0.0 0.0 0.00 0.00 0.00 80 1015.2
20260905000747 86 230 0.0 0.0 0.00 0.00 0.00 80 1015.3
20260905000243 87 224 0.0 0.0 0.00 0.00 0.00 79 1015.0
20260904235738 87 216 0.0 0.0 0.00 0.00 0.00 79 1015.0
20260904235232 87 224 0.0 0.0 0.00 0.00 0.00 78 1015.2
20260904234726 88 210 0.0 0.0 0.00 0.00 0.00 77 1015.0
20260904234222 88 194 0.0 0.0 0.00 0.00 0.00 76 1014.9
20260904233718 88 213 0.0 0.0 0.00 0.00 0.00 76 1014.8
20260904233214 89 230 0.0 0.0 0.00 0.00 0.00 75 1014.7
20260904232710 89 213 0.0 0.0 0.00 0.00 0.00 74 1014.9
20260904232207 89 228 0.0 0.0 0.00 0.00 0.00 74 1014.7
20260904231701 90 206 0.0 0.0 0.00 0.00 0.00 73 1014.6
20260904231157 90 208 0.0 0.0 0.00 0.00 0.00 73 1014.4
20260904230656 90 215 0.0 0.0 0.00 0.00 0.00 72 1014.5
20260904230151 90 204 0.0 0.0 0.00 0.00 0.00 72 1014.5
20260904225649 90 234 0.0 0.0 0.00 0.00 0.00 72 1014.3
20260904225145 91 221 0.0 0.0 0.00 0.00 0.00 71 1014.4
20260904224639 91 228 0.0 0.0 0.00 0.00 0.00 71 1014.5
20260904224133 91 208 0.0 0.0 0.00 0.00 0.00 70 1014.4
20260904223633 92 230 0.0 0.0 0.00 0.00 0.00 68 1014.4
20260904223128 92 212 0.0 0.0 0.00 0.00 0.00 67 1014.6
20260904222625 94 200 0.0 0.0 0.00 0.00 0.00 63 1014.4
20260904222120 94 172 0.0 0.0 0.00 0.00 0.00 59 1014.1
20260904221619 95 246 0.0 0.0 0.00 0.00 0.00 57 1014.3
20260904221119 95 180 0.0 0.0 0.00 0.00 0.00 55 1014.2
20260904220614 95 222 0.0 0.0 0.00 0.00 0.00 54 1014.2
20260904220110 96 223 0.0 0.0 0.00 0.00 0.00 53 1014.2
20260904215609 96 261 0.0 0.0 0.00 0.00 0.00 53 1014.0
20260904215106 96 270 0.0 0.0 0.00 0.00 0.00 53 1014.2
20260904214601 96 234 0.0 0.0 0.00 0.00 0.00 53 1014.1
20260904214056 96 238 0.0 0.0 0.00 0.00 0.00 54 1013.9
20260904213554 97 189 0.0 0.0 0.00 0.00 0.00 56 1014.2
20260904213051 98 245 0.0 0.0 0.00 0.00 0.00 53 1014.0
20260904212550 99 236 0.0 0.0 0.00 0.00 0.00 50 1014.0
20260904212046 98 59 0.0 0.0 0.00 0.00 0.00 51 1014.1
20260904211545 97 176 0.0 0.0 0.00 0.00 0.00 52 1014.0
20260904211041 98 105 0.0 0.0 0.00 0.00 0.00 52 1014.3
20260904210540 99 120 0.0 0.0 0.00 0.00 0.00 50 1014.2
20260904210036 99 228 0.0 0.0 0.00 0.00 0.00 51 1014.2
20260904205531 98 201 0.0 0.0 0.00 0.00 0.00 51 1014.4
20260904205028 98 238 0.0 0.0 0.00 0.00 0.00 51 1014.3
20260904204523 97 241 0.0 0.0 0.00 0.00 0.00 51 1014.3
20260904204019 98 207 0.0 0.0 0.00 0.00 0.00 52 1014.6
20260904203515 96 241 0.0 0.0 0.00 0.00 0.00 57 1014.8
20260904203011 96 205 0.0 0.0 0.00 0.00 0.00 55 1014.8
20260904202507 96 268 0.0 0.0 0.00 0.00 0.00 56 1014.8
20260904202003 97 154 0.0 0.0 0.00 0.00 0.00 54 1014.9
20260904201457 97 215 0.0 0.0 0.00 0.00 0.00 54 1015.0
20260904200953 97 174 0.0 0.0 0.00 0.00 0.00 53 1015.1
20260904200451 97 234 0.0 0.0 0.00 0.00 0.00 56 1015.2
20260904195947 96 257 0.0 0.0 0.00 0.00 0.00 54 1015.3
20260904195445 98 331 0.0 0.0 0.00 0.00 0.00 52 1015.3
20260904194944 97 201 0.0 0.0 0.00 0.00 0.00 54 1015.5
20260904194439 96 220 0.0 0.0 0.00 0.00 0.00 55 1015.5
20260904193934 95 199 0.0 0.0 0.00 0.00 0.00 57 1015.5
20260904193430 96 159 0.0 0.0 0.00 0.00 0.00 56 1015.7
20260904192925 97 141 0.0 0.0 0.00 0.00 0.00 54 1015.5
20260904192420 100 113 0.0 0.0 0.00 0.00 0.00 51 1015.6
20260904191916 99 250 0.0 0.0 0.00 0.00 0.00 53 1015.6
20260904191412 97 259 0.0 0.0 0.00 0.00 0.00 55 1015.8
20260904190909 95 200 0.0 0.0 0.00 0.00 0.00 58 1015.9
20260904190404 95 211 0.0 0.0 0.00 0.00 0.00 59 1015.9
20260904185900 94 203 0.0 0.0 0.00 0.00 0.00 58 1016.1
20260904185355 95 199 0.0 0.0 0.00 0.00 0.00 60 1015.9
20260904184849 94 232 0.0 0.0 0.00 0.00 0.00 65 1016.2
20260904184344 93 261 0.0 0.0 0.00 0.00 0.00 62 1016.1
20260904183840 93 208 0.0 0.0 0.00 0.00 0.00 62 1016.3
20260904183335 95 228 0.0 0.0 0.00 0.00 0.00 62 1016.4
20260904182830 96 15 0.0 0.0 0.00 0.00 0.00 60 1016.4
20260904182325 95 233 0.0 0.0 0.00 0.00 0.00 61 1016.4
20260904181821 94 194 0.0 0.0 0.00 0.00 0.00 60 1016.5
20260904181320 95 227 0.0 0.0 0.00 0.00 0.00 60 1016.6
20260904180815 95 214 0.0 0.0 0.00 0.00 0.00 58 1016.8
20260904180311 96 132 0.0 0.0 0.00 0.00 0.00 56 1016.6
20260904175809 98 29 0.0 0.0 0.00 0.00 0.00 55 1016.5
20260904175308 97 251 0.0 0.0 0.00 0.00 0.00 58 1016.9
20260904174803 96 217 0.0 0.0 0.00 0.00 0.00 60 1016.7
20260904174300 94 272 0.0 0.0 0.00 0.00 0.00 61 1016.8
20260904173755 94 4 0.0 0.0 0.00 0.00 0.00 60 1017.2
20260904173250 93 159 0.0 0.0 0.00 0.00 0.00 62 1017.0
20260904172746 94 220 0.0 0.0 0.00 0.00 0.00 61 1017.0
20260904172244 94 191 0.0 0.0 0.00 0.00 0.00 61 1017.1
20260904171740 95 268 0.0 0.0 0.00 0.00 0.00 60 1017.2
20260904171235 95 225 0.0 0.0 0.00 0.00 0.00 59 1017.1
20260904170731 94 221 0.0 0.0 0.00 0.00 0.00 61 1017.3
20260904170227 93 241 0.0 0.0 0.00 0.00 0.00 63 1017.3
20260904165726 92 312 0.0 0.0 0.00 0.00 0.00 64 1017.5
20260904165221 93 180 0.0 0.0 0.00 0.00 0.00 63 1017.5
20260904164715 94 11 0.0 0.0 0.00 0.00 0.00 62 1017.5
20260904164210 95 14 0.0 0.0 0.00 0.00 0.00 63 1017.7
20260904163706 93 186 0.0 0.0 0.00 0.00 0.00 65 1017.6
20260904163201 93 261 0.0 0.0 0.00 0.00 0.00 67 1017.9
20260904162700 93 207 0.0 0.0 0.00 0.00 0.00 67 1018.0
20260904162155 95 35 0.0 0.0 0.00 0.00 0.00 64 1018.0
20260904161651 94 26 0.0 0.0 0.00 0.00 0.00 62 1017.8
20260904161146 93 253 0.0 0.0 0.00 0.00 0.00 65 1018.0
20260904160642 91 228 0.0 0.0 0.00 0.00 0.00 69 1018.2
20260904160137 90 187 0.0 0.0 0.00 0.00 0.00 72 1018.1
20260904155632 87 224 0.0 0.0 0.00 0.00 0.00 80 1018.3
20260904155126 87 234 0.0 0.0 0.00 0.00 0.00 81 1018.2
20260904154624 87 225 0.0 0.0 0.00 0.00 0.00 82 1018.6
20260904154119 87 240 0.0 0.0 0.00 0.00 0.00 80 1018.5
20260904153614 87 253 0.0 0.0 0.00 0.00 0.00 81 1018.8
20260904153110 86 239 0.0 0.0 0.00 0.00 0.00 83 1018.5
20260904152606 86 237 0.0 0.0 0.00 0.00 0.00 82 1018.6
20260904152101 86 225 0.0 0.0 0.00 0.00 0.00 83 1018.5
20260904151556 87 206 0.0 0.0 0.00 0.00 0.00 82 1018.5
20260904151055 87 217 0.0 0.0 0.00 0.00 0.00 81 1018.5
20260904150550 87 189 0.0 0.0 0.00 0.00 0.00 82 1018.3
20260904150045 88 248 0.0 0.0 0.00 0.00 0.00 78 1018.2
20260904145544 87 218 0.0 0.0 0.00 0.00 0.00 80 1018.5
20260904145039 87 208 0.0 0.0 0.00 0.00 0.00 79 1018.3
20260904144535 85 236 0.0 0.0 0.00 0.00 0.00 84 1018.2
20260904144031 87 56 0.0 0.0 0.00 0.00 0.00 81 1018.3
20260904143526 87 223 0.0 0.0 0.00 0.00 0.00 81 1018.5
20260904143023 87 196 0.0 0.0 0.00 0.00 0.00 80 1018.3
20260904142519 87 88 0.0 0.0 0.00 0.00 0.00 78 1018.3
20260904142019 87 220 0.0 0.0 0.00 0.00 0.00 80 1018.4
20260904141515 87 180 0.0 0.0 0.00 0.00 0.00 77 1018.4
20260904141010 86 156 0.0 0.0 0.00 0.00 0.00 80 1018.1
20260904140505 85 297 0.0 0.0 0.00 0.00 0.00 83 1018.2
20260904140004 84 249 0.0 0.0 0.00 0.00 0.00 85 1018.2
20260904135458 84 237 0.0 0.0 0.00 0.00 0.00 85 1018.1
20260904134955 84 192 0.0 0.0 0.00 0.00 0.00 86 1018.2
20260904134454 84 195 0.0 0.0 0.00 0.00 0.00 87 1018.1
20260904133949 83 155 0.0 0.0 0.00 0.00 0.00 88 1018.1
20260904133444 83 6 0.0 0.0 0.00 0.00 0.00 90 1018.1
20260904132939 85 167 0.0 0.0 0.00 0.00 0.00 88 1018.2
20260904132435 84 193 0.0 0.0 0.00 0.00 0.00 88 1018.2
20260904131934 82 189 0.0 0.0 0.00 0.00 0.00 91 1018.4
20260904131429 81 161 0.0 0.0 0.00 0.00 0.00 93 1018.4
20260904130925 81 212 0.0 0.0 0.00 0.00 0.00 95 1018.3
20260904130424 80 222 0.0 0.0 0.00 0.00 0.00 96 1018.5
20260904125919 78 182 0.0 0.0 0.00 0.00 0.00 98 1018.3
20260904125416 77 172 0.0 0.0 0.00 0.00 0.00 99 1018.7
20260904124915 77 227 0.0 0.0 0.00 0.00 0.00 99 1018.5
20260904124411 76 229 0.0 0.0 0.00 0.00 0.00 99 1018.4
20260904123907 75 237 0.0 0.0 0.00 0.00 0.00 99 1018.5